Regional Weather Roundup
Issued by NWS

Home | Current Version | Previous Version | Graphics & Text | Print | Product List | Glossary On
Versions: 1 2 3 4 5 6 7 8 9 10 11 12 13 14 15 16 17 18 19 20 21 22 23 24 25 26 27 28 29 30 31 32 33 34 35 36 37 38 39 40 41 42 43 44 45 46 47 48 49 50
000
ASUS45 KBOI 292110
RWRID
WEATHER ROUNDUP FOR IDAHO
NATIONAL WEATHER SERVICE BOISE ID
300 PM MDT FRI AUG 29 2014

NOTE: "FAIR" INDICATES FEW OR NO CLOUDS BELOW 12000 FEET
WITH NO SIGNIFICANT WEATHER AND/OR OBSTRUCTIONS TO VISIBILITY

IDZ012-014-292200-
SOUTHWEST IDAHO


CITY           SKY/WX    TMP DP  RH WIND       PRES   REMARKS
BOISE          SUNNY     89  40  17 VRB6      29.89F
CALDWELL       SUNNY     86  45  23 CALM      29.90F
MOUNTAIN HOME  SUNNY     89  40  18 VRB3      29.90F
$$

IDZ016-017-292200-
SOUTHCENTRAL IDAHO


CITY           SKY/WX    TMP DP  RH WIND       PRES   REMARKS
BURLEY         MOSUNNY   84  46  26 N3        29.99F
JEROME         SUNNY     82  48  30 CALM      30.00F
TWIN FALLS     SUNNY     83  52  34 NE6       30.00F
$$

IDZ019>023-292200-
SOUTHEAST IDAHO


CITY           SKY/WX    TMP DP  RH WIND       PRES   REMARKS
IDAHO FALLS    SUNNY     85  42  22 SW14      30.04F
POCATELLO      SUNNY     86  42  21 SW8       30.02F
REXBURG        SUNNY     80  43  26 SW8       30.04F
$$

IDZ006-010-011-018-031-032-292200-
CENTRAL IDAHO MOUNTAINS


CITY           SKY/WX    TMP DP  RH WIND       PRES   REMARKS
MCCALL         SUNNY     81  31  16 S16       30.01F
HAILEY         MOSUNNY   82  45  26 S17       30.07
STANLEY          N/A     79  31  17 VRB5      30.12F
SALMON         SUNNY     79  45  29 CALM      29.91F
CHALLIS        MOSUNNY   86  31  13 SW14G23   29.98F
$$

IDZ002-004-006-007-026-292200-
NORTHERN IDAHO


CITY           SKY/WX    TMP DP  RH WIND       PRES   REMARKS
LEWISTON       SUNNY     87  40  19 VRB6      29.84F
LOWELL           N/A     90  46  21 S3        29.81F
COEUR D`ALENE  MOSUNNY   81  46  30 S10G22    29.85F
MULLAN PASS    SUNNY     67  38  34 VRB6      30.05F
$$



USA.gov is the U.S. government's official web portal to all federal, state and local government web resources and services.